{"data":{"norad_id":58212,"intl_designator":"2023-170G","name":"STARLINK-30837","alt_names":[],"object_type":"PAYLOAD","status":"ACTIVE","operator":null,"country":"US","launch_date":"2023-11-03","launch_site_code":"AFETR","launch_vehicle":null,"mission":null,"orbit_class":"UNKNOWN","rcs_meters":null,"size_class":null,"mass_kg":null,"dimensions":null,"purposes":["comms"],"wikipedia_slug":null,"has_3d_model":false,"image_url":null,"decayed_at":null,"tle_current":{"epoch":"2026-09-20T03:26:30.589440Z","epoch_age_seconds":174502,"freshness":"STALE","line1":"1 58212U 23170G   26263.14340960  .00000244  00000+0  18391-4 0  9992","line2":"2 58212  43.0023 176.4654 0000789 261.4587  98.6176 15.27578204160030","mean_motion":15.27578204,"eccentricity":7.89e-5,"inclination_deg":43.0023,"raan_deg":176.4654,"arg_perigee_deg":261.4587,"mean_anomaly_deg":98.6176,"bstar":1.8391e-5,"rev_number":16003,"period_min":94.266859544691,"perigee_km":482.51312590774,"apogee_km":483.59582192232,"semimajor_km":6861.191473915,"source":"CELESTRAK","updated_at":"2026-09-21T09:00:33.832216Z"}}}